Tracking 21473 objects as of 18-Sep-2020
HD Live streaming from Space Station
objects crossing your sky now

CZ-4C R/B

Track CZ-4C R/B now!
10-day predictions
CZ-4C R/B is classified as:


NORAD ID: 39211
Int'l Code: 2013-037D
Perigee: 472.2 km
Apogee: 641.9 km
Inclination: 98.0 °
Period: 95.6 minutes
Semi major axis: 6928 km
RCS: Unknown
Launch date: July 19, 2013
Source: People's Republic of China (PRC)
Launch site: Taiyaun Space Center, China (TSC)

Note: This is a ROCKET BODY
aabbcc
Your satellite tracking list
Your tracking list is empty




NASA's NSSDC Master Catalog

Two Line Element Set (TLE):
1 39211U 13037D   20261.84139567 +.00000519 +00000-0 +35387-4 0  9999
2 39211 097.9862 034.5378 0122470 253.2885 105.4871 15.05519593393046
Source of the keplerian elements: AFSPC